Year,Month,Day,Hour,Minute,Value (Times are PST for insolation in W/m^2)
2020,06,09,00,00,0.00
2020,06,09,00,01,0.00
2020,06,09,00,02,0.00
2020,06,09,00,03,0.00
2020,06,09,00,04,0.00
2020,06,09,00,05,0.00
2020,06,09,00,06,0.00
2020,06,09,00,07,0.00
2020,06,09,00,08,0.00
2020,06,09,00,09,0.00
2020,06,09,00,10,0.00
2020,06,09,00,11,0.00
2020,06,09,00,12,0.00
2020,06,09,00,13,0.00
2020,06,09,00,14,0.00
2020,06,09,00,15,0.00
2020,06,09,00,16,0.00
2020,06,09,00,17,0.00
2020,06,09,00,18,0.00
2020,06,09,00,19,0.00
2020,06,09,00,20,0.00
2020,06,09,00,21,0.00
2020,06,09,00,22,0.00
2020,06,09,00,23,0.00
2020,06,09,00,24,0.00
2020,06,09,00,25,0.00
2020,06,09,00,26,0.00
2020,06,09,00,27,0.00
2020,06,09,00,28,0.00
2020,06,09,00,29,0.00
2020,06,09,00,30,0.00
2020,06,09,00,31,0.00
2020,06,09,00,32,0.00
2020,06,09,00,33,0.00
2020,06,09,00,34,0.00
2020,06,09,00,35,0.00
2020,06,09,00,36,0.00
2020,06,09,00,37,0.00
2020,06,09,00,38,0.00
2020,06,09,00,39,0.00
2020,06,09,00,40,0.00
2020,06,09,00,41,0.00
2020,06,09,00,42,0.00
2020,06,09,00,43,0.00
2020,06,09,00,44,0.00
2020,06,09,00,45,0.00
2020,06,09,00,46,0.00
2020,06,09,00,47,0.00
2020,06,09,00,48,0.00
2020,06,09,00,49,0.00
2020,06,09,00,50,0.00
2020,06,09,00,51,0.00
2020,06,09,00,52,0.00
2020,06,09,00,53,0.00
2020,06,09,00,54,0.00
2020,06,09,00,55,0.00
2020,06,09,00,56,0.00
2020,06,09,00,57,0.00
2020,06,09,00,58,0.00
2020,06,09,00,59,0.00
2020,06,09,01,00,0.00
2020,06,09,01,01,0.00
2020,06,09,01,02,0.00
2020,06,09,01,03,0.00
2020,06,09,01,04,0.00
2020,06,09,01,05,0.00
2020,06,09,01,06,0.00
2020,06,09,01,07,0.00
2020,06,09,01,08,0.00
2020,06,09,01,09,0.00
2020,06,09,01,10,0.00
2020,06,09,01,11,0.00
2020,06,09,01,12,0.00
2020,06,09,01,13,0.00
2020,06,09,01,14,0.00
2020,06,09,01,15,0.00
2020,06,09,01,16,0.00
2020,06,09,01,17,0.00
2020,06,09,01,18,0.00
2020,06,09,01,19,0.00
2020,06,09,01,20,0.00
2020,06,09,01,21,0.00
2020,06,09,01,22,0.00
2020,06,09,01,23,0.00
2020,06,09,01,24,0.00
2020,06,09,01,25,0.00
2020,06,09,01,26,0.00
2020,06,09,01,27,0.00
2020,06,09,01,28,0.00
2020,06,09,01,29,0.00
2020,06,09,01,30,0.00
2020,06,09,01,31,0.00
2020,06,09,01,32,0.00
2020,06,09,01,33,0.00
2020,06,09,01,34,0.00
2020,06,09,01,35,0.00
2020,06,09,01,36,0.00
2020,06,09,01,37,0.00
2020,06,09,01,38,0.00
2020,06,09,01,39,0.00
2020,06,09,01,40,0.00
2020,06,09,01,41,0.00
2020,06,09,01,42,0.00
2020,06,09,01,43,0.00
2020,06,09,01,44,0.00
2020,06,09,01,45,0.00
2020,06,09,01,46,0.00
2020,06,09,01,47,0.00
2020,06,09,01,48,0.00
2020,06,09,01,49,0.00
2020,06,09,01,50,0.00
2020,06,09,01,51,0.00
2020,06,09,01,52,0.00
2020,06,09,01,53,0.00
2020,06,09,01,54,0.00
2020,06,09,01,55,0.00
2020,06,09,01,56,0.00
2020,06,09,01,57,0.00
2020,06,09,01,58,0.00
2020,06,09,01,59,0.00
2020,06,09,02,00,0.00
2020,06,09,02,01,0.00
2020,06,09,02,02,0.00
2020,06,09,02,03,0.00
2020,06,09,02,04,0.00
2020,06,09,02,05,0.00
2020,06,09,02,06,0.00
2020,06,09,02,07,0.00
2020,06,09,02,08,0.00
2020,06,09,02,09,0.00
2020,06,09,02,10,0.00
2020,06,09,02,11,0.00
2020,06,09,02,12,0.00
2020,06,09,02,13,0.00
2020,06,09,02,14,0.00
2020,06,09,02,15,0.00
2020,06,09,02,16,0.00
2020,06,09,02,17,0.00
2020,06,09,02,18,0.00
2020,06,09,02,19,0.00
2020,06,09,02,20,0.00
2020,06,09,02,21,0.00
2020,06,09,02,22,0.00
2020,06,09,02,23,0.00
2020,06,09,02,24,0.00
2020,06,09,02,25,0.00
2020,06,09,02,26,0.00
2020,06,09,02,27,0.00
2020,06,09,02,28,0.00
2020,06,09,02,29,0.00
2020,06,09,02,30,0.00
2020,06,09,02,31,0.00
2020,06,09,02,32,0.00
2020,06,09,02,33,0.00
2020,06,09,02,34,0.00
2020,06,09,02,35,0.00
2020,06,09,02,36,0.00
2020,06,09,02,37,0.00
2020,06,09,02,38,0.00
2020,06,09,02,39,0.00
2020,06,09,02,40,0.00
2020,06,09,02,41,0.00
2020,06,09,02,42,0.00
2020,06,09,02,43,0.00
2020,06,09,02,44,0.00
2020,06,09,02,45,0.00
2020,06,09,02,46,0.00
2020,06,09,02,47,0.00
2020,06,09,02,48,0.00
2020,06,09,02,49,0.00
2020,06,09,02,50,0.00
2020,06,09,02,51,0.00
2020,06,09,02,52,0.00
2020,06,09,02,53,0.00
2020,06,09,02,54,0.00
2020,06,09,02,55,0.00
2020,06,09,02,56,0.00
2020,06,09,02,57,0.00
2020,06,09,02,58,0.00
2020,06,09,02,59,0.00
2020,06,09,03,00,0.00
2020,06,09,03,01,0.00
2020,06,09,03,02,0.00
2020,06,09,03,03,0.00
2020,06,09,03,04,0.00
2020,06,09,03,05,0.00
2020,06,09,03,06,0.00
2020,06,09,03,07,0.00
2020,06,09,03,08,0.00
2020,06,09,03,09,0.00
2020,06,09,03,10,0.00
2020,06,09,03,11,0.00
2020,06,09,03,12,0.00
2020,06,09,03,13,0.00
2020,06,09,03,14,0.00
2020,06,09,03,15,0.00
2020,06,09,03,16,0.00
2020,06,09,03,17,0.00
2020,06,09,03,18,0.00
2020,06,09,03,19,0.00
2020,06,09,03,20,0.00
2020,06,09,03,21,0.00
2020,06,09,03,22,0.00
2020,06,09,03,23,0.00
2020,06,09,03,24,0.00
2020,06,09,03,25,0.00
2020,06,09,03,26,0.00
2020,06,09,03,27,0.00
2020,06,09,03,28,0.00
2020,06,09,03,29,0.00
2020,06,09,03,30,0.00
2020,06,09,03,31,0.00
2020,06,09,03,32,0.00
2020,06,09,03,33,0.00
2020,06,09,03,34,0.00
2020,06,09,03,35,0.00
2020,06,09,03,36,0.00
2020,06,09,03,37,0.00
2020,06,09,03,38,0.00
2020,06,09,03,39,0.00
2020,06,09,03,40,0.00
2020,06,09,03,41,0.00
2020,06,09,03,42,0.00
2020,06,09,03,43,0.00
2020,06,09,03,44,0.00
2020,06,09,03,45,0.00
2020,06,09,03,46,0.00
2020,06,09,03,47,0.00
2020,06,09,03,48,0.00
2020,06,09,03,49,0.00
2020,06,09,03,50,0.00
2020,06,09,03,51,0.00
2020,06,09,03,52,0.00
2020,06,09,03,53,0.00
2020,06,09,03,54,0.00
2020,06,09,03,55,0.00
2020,06,09,03,56,0.00
2020,06,09,03,57,0.00
2020,06,09,03,58,0.00
2020,06,09,03,59,0.00
2020,06,09,04,00,0.00
2020,06,09,04,01,0.00
2020,06,09,04,02,0.00
2020,06,09,04,03,0.00
2020,06,09,04,04,0.00
2020,06,09,04,05,0.00
2020,06,09,04,06,0.00
2020,06,09,04,07,0.00
2020,06,09,04,08,0.00
2020,06,09,04,09,0.00
2020,06,09,04,10,0.00
2020,06,09,04,11,0.00
2020,06,09,04,12,0.00
2020,06,09,04,13,0.00
2020,06,09,04,14,0.00
2020,06,09,04,15,0.00
2020,06,09,04,16,0.00
2020,06,09,04,17,0.00
2020,06,09,04,18,0.00
2020,06,09,04,19,0.00
2020,06,09,04,20,0.00
2020,06,09,04,21,0.00
2020,06,09,04,22,0.00
2020,06,09,04,23,0.00
2020,06,09,04,24,0.00
2020,06,09,04,25,0.00
2020,06,09,04,26,0.00
2020,06,09,04,27,0.00
2020,06,09,04,28,0.00
2020,06,09,04,29,0.00
2020,06,09,04,30,0.00
2020,06,09,04,31,0.00
2020,06,09,04,32,0.00
2020,06,09,04,33,0.00
2020,06,09,04,34,0.00
2020,06,09,04,35,0.00
2020,06,09,04,36,0.00
2020,06,09,04,37,0.00
2020,06,09,04,38,0.00
2020,06,09,04,39,0.00
2020,06,09,04,40,0.00
2020,06,09,04,41,0.00
2020,06,09,04,42,0.00
2020,06,09,04,43,0.00
2020,06,09,04,44,0.00
2020,06,09,04,45,0.00
2020,06,09,04,46,0.00
2020,06,09,04,47,0.00
2020,06,09,04,48,0.00
2020,06,09,04,49,0.00
2020,06,09,04,50,0.00
2020,06,09,04,51,0.00
2020,06,09,04,52,0.00
2020,06,09,04,53,0.00
2020,06,09,04,54,0.00
2020,06,09,04,55,0.00
2020,06,09,04,56,0.00
2020,06,09,04,57,0.00
2020,06,09,04,58,0.00
2020,06,09,04,59,0.00
2020,06,09,05,00,0.00
2020,06,09,05,01,0.00
2020,06,09,05,02,0.00
2020,06,09,05,03,0.00
2020,06,09,05,04,0.00
2020,06,09,05,05,0.00
2020,06,09,05,06,0.00
2020,06,09,05,07,0.00
2020,06,09,05,08,0.00
2020,06,09,05,09,0.00
2020,06,09,05,10,0.00
2020,06,09,05,11,0.00
2020,06,09,05,12,0.00
2020,06,09,05,13,0.00
2020,06,09,05,14,0.00
2020,06,09,05,15,0.00
2020,06,09,05,16,0.00
2020,06,09,05,17,0.00
2020,06,09,05,18,0.00
2020,06,09,05,19,0.00
2020,06,09,05,20,0.00
2020,06,09,05,21,0.00
2020,06,09,05,22,0.00
2020,06,09,05,23,0.00
2020,06,09,05,24,0.00
2020,06,09,05,25,0.00
2020,06,09,05,26,0.00
2020,06,09,05,27,0.00
2020,06,09,05,28,0.00
2020,06,09,05,29,0.00
2020,06,09,05,30,0.00
2020,06,09,05,31,1.50
2020,06,09,05,32,5.00
2020,06,09,05,33,5.00
2020,06,09,05,34,6.50
2020,06,09,05,35,7.00
2020,06,09,05,36,9.00
2020,06,09,05,37,9.00
2020,06,09,05,38,9.00
2020,06,09,05,39,9.00
2020,06,09,05,40,7.60
2020,06,09,05,41,7.00
2020,06,09,05,42,6.70
2020,06,09,05,43,5.00
2020,06,09,05,44,2.50
2020,06,09,05,45,0.00
2020,06,09,05,46,0.00
2020,06,09,05,47,0.00
2020,06,09,05,48,0.00
2020,06,09,05,49,0.00
2020,06,09,05,50,0.00
2020,06,09,05,51,0.00
2020,06,09,05,52,0.00
2020,06,09,05,53,0.40
2020,06,09,05,54,5.00
2020,06,09,05,55,5.00
2020,06,09,05,56,5.00
2020,06,09,05,57,5.00
2020,06,09,05,58,5.00
2020,06,09,05,59,5.00
2020,06,09,06,00,5.00
2020,06,09,06,01,5.00
2020,06,09,06,02,5.00
2020,06,09,06,03,5.00
2020,06,09,06,04,5.00
2020,06,09,06,05,5.00
2020,06,09,06,06,5.00
2020,06,09,06,07,5.00
2020,06,09,06,08,5.00
2020,06,09,06,09,5.00
2020,06,09,06,10,5.00
2020,06,09,06,11,5.00
2020,06,09,06,12,5.00
2020,06,09,06,13,5.00
2020,06,09,06,14,5.00
2020,06,09,06,15,5.00
2020,06,09,06,16,5.00
2020,06,09,06,17,5.00
2020,06,09,06,18,5.00
2020,06,09,06,19,5.00
2020,06,09,06,20,5.00
2020,06,09,06,21,5.00
2020,06,09,06,22,6.70
2020,06,09,06,23,5.00
2020,06,09,06,24,5.70
2020,06,09,06,25,7.00
2020,06,09,06,26,7.00
2020,06,09,06,27,7.00
2020,06,09,06,28,7.00
2020,06,09,06,29,7.00
2020,06,09,06,30,7.00
2020,06,09,06,31,7.00
2020,06,09,06,32,7.00
2020,06,09,06,33,7.00
2020,06,09,06,34,8.80
2020,06,09,06,35,9.40
2020,06,09,06,36,11.30
2020,06,09,06,37,12.00
2020,06,09,06,38,12.00
2020,06,09,06,39,13.60
2020,06,09,06,40,16.10
2020,06,09,06,41,18.30
2020,06,09,06,42,19.80
2020,06,09,06,43,21.00
2020,06,09,06,44,21.00
2020,06,09,06,45,22.70
2020,06,09,06,46,22.70
2020,06,09,06,47,21.50
2020,06,09,06,48,23.00
2020,06,09,06,49,21.90
2020,06,09,06,50,19.60
2020,06,09,06,51,20.70
2020,06,09,06,52,20.70
2020,06,09,06,53,18.70
2020,06,09,06,54,18.40
2020,06,09,06,55,20.20
2020,06,09,06,56,23.80
2020,06,09,06,57,25.00
2020,06,09,06,58,28.70
2020,06,09,06,59,32.00
2020,06,09,07,00,32.00
2020,06,09,07,01,30.80
2020,06,09,07,02,31.50
2020,06,09,07,03,31.80
2020,06,09,07,04,28.40
2020,06,09,07,05,28.70
2020,06,09,07,06,27.00
2020,06,09,07,07,28.00
2020,06,09,07,08,28.00
2020,06,09,07,09,26.30
2020,06,09,07,10,27.70
2020,06,09,07,11,25.70
2020,06,09,07,12,26.50
2020,06,09,07,13,26.70
2020,06,09,07,14,26.00
2020,06,09,07,15,27.70
2020,06,09,07,16,26.00
2020,06,09,07,17,25.60
2020,06,09,07,18,26.50
2020,06,09,07,19,29.30
2020,06,09,07,20,32.40
2020,06,09,07,21,32.10
2020,06,09,07,22,33.00
2020,06,09,07,23,35.10
2020,06,09,07,24,39.50
2020,06,09,07,25,40.00
2020,06,09,07,26,44.90
2020,06,09,07,27,47.20
2020,06,09,07,28,50.30
2020,06,09,07,29,55.60
2020,06,09,07,30,59.10
2020,06,09,07,31,61.40
2020,06,09,07,32,66.20
2020,06,09,07,33,66.40
2020,06,09,07,34,64.20
2020,06,09,07,35,70.00
2020,06,09,07,36,75.70
2020,06,09,07,37,79.80
2020,06,09,07,38,82.70
2020,06,09,07,39,76.00
2020,06,09,07,40,73.00
2020,06,09,07,41,68.40
2020,06,09,07,42,70.00
2020,06,09,07,43,67.70
2020,06,09,07,44,66.90
2020,06,09,07,45,65.80
2020,06,09,07,46,67.90
2020,06,09,07,47,63.00
2020,06,09,07,48,62.40
2020,06,09,07,49,60.50
2020,06,09,07,50,61.60
2020,06,09,07,51,55.60
2020,06,09,07,52,54.00
2020,06,09,07,53,54.00
2020,06,09,07,54,54.00
2020,06,09,07,55,51.70
2020,06,09,07,56,53.80
2020,06,09,07,57,53.30
2020,06,09,07,58,50.30
2020,06,09,07,59,48.00
2020,06,09,08,00,48.30
2020,06,09,08,01,45.00
2020,06,09,08,02,47.90
2020,06,09,08,03,62.20
2020,06,09,08,04,72.70
2020,06,09,08,05,78.00
2020,06,09,08,06,84.90
2020,06,09,08,07,86.30
2020,06,09,08,08,77.60
2020,06,09,08,09,79.50
2020,06,09,08,10,81.00
2020,06,09,08,11,78.70
2020,06,09,08,12,77.00
2020,06,09,08,13,74.50
2020,06,09,08,14,74.80
2020,06,09,08,15,80.30
2020,06,09,08,16,88.50
2020,06,09,08,17,93.90
2020,06,09,08,18,88.00
2020,06,09,08,19,78.20
2020,06,09,08,20,76.80
2020,06,09,08,21,76.90
2020,06,09,08,22,80.70
2020,06,09,08,23,79.70
2020,06,09,08,24,82.40
2020,06,09,08,25,77.90
2020,06,09,08,26,77.80
2020,06,09,08,27,82.70
2020,06,09,08,28,82.80
2020,06,09,08,29,80.20
2020,06,09,08,30,72.80
2020,06,09,08,31,62.70
2020,06,09,08,32,63.90
2020,06,09,08,33,65.60
2020,06,09,08,34,61.60
2020,06,09,08,35,61.20
2020,06,09,08,36,67.30
2020,06,09,08,37,65.40
2020,06,09,08,38,68.50
2020,06,09,08,39,68.10
2020,06,09,08,40,73.50
2020,06,09,08,41,73.90
2020,06,09,08,42,75.20
2020,06,09,08,43,77.80
2020,06,09,08,44,86.40
2020,06,09,08,45,93.20
2020,06,09,08,46,97.30
2020,06,09,08,47,89.70
2020,06,09,08,48,89.70
2020,06,09,08,49,86.20
2020,06,09,08,50,82.90
2020,06,09,08,51,71.00
2020,06,09,08,52,61.90
2020,06,09,08,53,51.70
2020,06,09,08,54,49.00
2020,06,09,08,55,49.70
2020,06,09,08,56,56.60
2020,06,09,08,57,66.90
2020,06,09,08,58,73.10
2020,06,09,08,59,77.50
2020,06,09,09,00,89.40
2020,06,09,09,01,94.30
2020,06,09,09,02,102.10
2020,06,09,09,03,112.00
2020,06,09,09,04,128.50
2020,06,09,09,05,155.20
2020,06,09,09,06,172.30
2020,06,09,09,07,197.20
2020,06,09,09,08,183.60
2020,06,09,09,09,178.30
2020,06,09,09,10,158.60
2020,06,09,09,11,143.20
2020,06,09,09,12,139.10
2020,06,09,09,13,138.10
2020,06,09,09,14,141.00
2020,06,09,09,15,140.00
2020,06,09,09,16,131.90
2020,06,09,09,17,109.50
2020,06,09,09,18,90.50
2020,06,09,09,19,79.90
2020,06,09,09,20,72.50
2020,06,09,09,21,68.00
2020,06,09,09,22,70.90
2020,06,09,09,23,77.50
2020,06,09,09,24,79.40
2020,06,09,09,25,83.80
2020,06,09,09,26,81.50
2020,06,09,09,27,85.50
2020,06,09,09,28,95.00
2020,06,09,09,29,102.80
2020,06,09,09,30,100.80
2020,06,09,09,31,104.80
2020,06,09,09,32,96.80
2020,06,09,09,33,97.70
2020,06,09,09,34,100.00
2020,06,09,09,35,97.50
2020,06,09,09,36,113.40
2020,06,09,09,37,116.00
2020,06,09,09,38,118.20
2020,06,09,09,39,115.10
2020,06,09,09,40,111.00
2020,06,09,09,41,103.20
2020,06,09,09,42,109.00
2020,06,09,09,43,106.10
2020,06,09,09,44,97.80
2020,06,09,09,45,96.30
2020,06,09,09,46,90.30
2020,06,09,09,47,81.70
2020,06,09,09,48,78.00
2020,06,09,09,49,81.80
2020,06,09,09,50,79.00
2020,06,09,09,51,85.70
2020,06,09,09,52,92.20
2020,06,09,09,53,83.30
2020,06,09,09,54,112.00
2020,06,09,09,55,111.10
2020,06,09,09,56,107.30
2020,06,09,09,57,116.10
2020,06,09,09,58,121.80
2020,06,09,09,59,124.00
2020,06,09,10,00,138.30
2020,06,09,10,01,154.90
2020,06,09,10,02,162.70
2020,06,09,10,03,191.10
2020,06,09,10,04,238.80
2020,06,09,10,05,303.40
2020,06,09,10,06,279.60
2020,06,09,10,07,270.50
2020,06,09,10,08,270.90
2020,06,09,10,09,277.00
2020,06,09,10,10,322.30
2020,06,09,10,11,350.70
2020,06,09,10,12,347.20
2020,06,09,10,13,332.90
2020,06,09,10,14,316.00
2020,06,09,10,15,293.00
2020,06,09,10,16,286.30
2020,06,09,10,17,291.60
2020,06,09,10,18,256.80
2020,06,09,10,19,235.60
2020,06,09,10,20,237.30
2020,06,09,10,21,205.20
2020,06,09,10,22,178.70
2020,06,09,10,23,178.20
2020,06,09,10,24,178.10
2020,06,09,10,25,180.60
2020,06,09,10,26,197.00
2020,06,09,10,27,211.40
2020,06,09,10,28,227.70
2020,06,09,10,29,243.50
2020,06,09,10,30,241.70
2020,06,09,10,31,270.00
2020,06,09,10,32,305.50
2020,06,09,10,33,335.00
2020,06,09,10,34,336.40
2020,06,09,10,35,325.80
2020,06,09,10,36,315.10
2020,06,09,10,37,336.20
2020,06,09,10,38,328.10
2020,06,09,10,39,323.40
2020,06,09,10,40,317.40
2020,06,09,10,41,306.40
2020,06,09,10,42,311.50
2020,06,09,10,43,318.00
2020,06,09,10,44,319.30
2020,06,09,10,45,322.40
2020,06,09,10,46,319.30
2020,06,09,10,47,313.20
2020,06,09,10,48,329.80
2020,06,09,10,49,367.40
2020,06,09,10,50,415.30
2020,06,09,10,51,433.10
2020,06,09,10,52,442.20
2020,06,09,10,53,396.00
2020,06,09,10,54,346.40
2020,06,09,10,55,303.30
2020,06,09,10,56,292.40
2020,06,09,10,57,277.60
2020,06,09,10,58,283.30
2020,06,09,10,59,280.40
2020,06,09,11,00,265.10
2020,06,09,11,01,255.90
2020,06,09,11,02,256.60
2020,06,09,11,03,261.60
2020,06,09,11,04,271.50
2020,06,09,11,05,278.00
2020,06,09,11,06,289.30
2020,06,09,11,07,287.90
2020,06,09,11,08,275.40
2020,06,09,11,09,269.40
2020,06,09,11,10,272.80
2020,06,09,11,11,299.70
2020,06,09,11,12,330.90
2020,06,09,11,13,363.50
2020,06,09,11,14,376.90
2020,06,09,11,15,372.80
2020,06,09,11,16,356.20
2020,06,09,11,17,340.40
2020,06,09,11,18,325.20
2020,06,09,11,19,316.80
2020,06,09,11,20,312.00
2020,06,09,11,21,312.20
2020,06,09,11,22,332.60
2020,06,09,11,23,393.00
2020,06,09,11,24,483.50
2020,06,09,11,25,512.00
2020,06,09,11,26,512.00
2020,06,09,11,27,465.70
2020,06,09,11,28,400.20
2020,06,09,11,29,364.70
2020,06,09,11,30,350.30
2020,06,09,11,31,346.00
2020,06,09,11,32,357.50
2020,06,09,11,33,344.70
2020,06,09,11,34,321.20
2020,06,09,11,35,321.80
2020,06,09,11,36,344.10
2020,06,09,11,37,362.70
2020,06,09,11,38,366.80
2020,06,09,11,39,387.80
2020,06,09,11,40,425.50
2020,06,09,11,41,440.20
2020,06,09,11,42,427.00
2020,06,09,11,43,391.30
2020,06,09,11,44,350.60
2020,06,09,11,45,325.90
2020,06,09,11,46,338.20
2020,06,09,11,47,375.00
2020,06,09,11,48,414.40
2020,06,09,11,49,417.30
2020,06,09,11,50,433.50
2020,06,09,11,51,435.30
2020,06,09,11,52,413.00
2020,06,09,11,53,394.40
2020,06,09,11,54,370.80
2020,06,09,11,55,351.50
2020,06,09,11,56,346.20
2020,06,09,11,57,367.00
2020,06,09,11,58,363.00
2020,06,09,11,59,344.80
2020,06,09,12,00,356.00
2020,06,09,12,01,386.20
2020,06,09,12,02,399.20
2020,06,09,12,03,381.80
2020,06,09,12,04,365.50
2020,06,09,12,05,352.30
2020,06,09,12,06,349.30
2020,06,09,12,07,354.00
2020,06,09,12,08,360.60
2020,06,09,12,09,371.40
2020,06,09,12,10,383.10
2020,06,09,12,11,395.10
2020,06,09,12,12,408.00
2020,06,09,12,13,421.40
2020,06,09,12,14,431.10
2020,06,09,12,15,437.70
2020,06,09,12,16,443.00
2020,06,09,12,17,438.30
2020,06,09,12,18,434.00
2020,06,09,12,19,420.70
2020,06,09,12,20,407.70
2020,06,09,12,21,404.20
2020,06,09,12,22,399.00
2020,06,09,12,23,406.90
2020,06,09,12,24,424.30
2020,06,09,12,25,435.10
2020,06,09,12,26,450.00
2020,06,09,12,27,468.90
2020,06,09,12,28,459.70
2020,06,09,12,29,434.50
2020,06,09,12,30,424.80
2020,06,09,12,31,428.40
2020,06,09,12,32,436.70
2020,06,09,12,33,476.00
2020,06,09,12,34,479.70
2020,06,09,12,35,468.20
2020,06,09,12,36,449.30
2020,06,09,12,37,445.70
2020,06,09,12,38,465.40
2020,06,09,12,39,495.40
2020,06,09,12,40,508.00
2020,06,09,12,41,504.30
2020,06,09,12,42,527.80
2020,06,09,12,43,504.90
2020,06,09,12,44,522.60
2020,06,09,12,45,555.20
2020,06,09,12,46,585.90
2020,06,09,12,47,604.00
2020,06,09,12,48,580.80
2020,06,09,12,49,573.40
2020,06,09,12,50,545.20
2020,06,09,12,51,510.00
2020,06,09,12,52,482.20
2020,06,09,12,53,480.90
2020,06,09,12,54,465.20
2020,06,09,12,55,424.40
2020,06,09,12,56,412.50
2020,06,09,12,57,397.80
2020,06,09,12,58,378.70
2020,06,09,12,59,360.20
2020,06,09,13,00,368.70
2020,06,09,13,01,413.30
2020,06,09,13,02,423.50
2020,06,09,13,03,418.20
2020,06,09,13,04,436.70
2020,06,09,13,05,473.10
2020,06,09,13,06,470.70
2020,06,09,13,07,452.80
2020,06,09,13,08,414.40
2020,06,09,13,09,386.60
2020,06,09,13,10,364.50
2020,06,09,13,11,356.10
2020,06,09,13,12,366.70
2020,06,09,13,13,402.60
2020,06,09,13,14,461.60
2020,06,09,13,15,510.00
2020,06,09,13,16,534.20
2020,06,09,13,17,486.50
2020,06,09,13,18,412.90
2020,06,09,13,19,397.00
2020,06,09,13,20,416.30
2020,06,09,13,21,452.60
2020,06,09,13,22,490.00
2020,06,09,13,23,497.40
2020,06,09,13,24,496.10
2020,06,09,13,25,480.30
2020,06,09,13,26,419.70
2020,06,09,13,27,410.40
2020,06,09,13,28,400.40
2020,06,09,13,29,385.40
2020,06,09,13,30,373.30
2020,06,09,13,31,359.60
2020,06,09,13,32,346.90
2020,06,09,13,33,332.50
2020,06,09,13,34,319.30
2020,06,09,13,35,313.40
2020,06,09,13,36,318.70
2020,06,09,13,37,325.00
2020,06,09,13,38,322.30
2020,06,09,13,39,313.10
2020,06,09,13,40,301.90
2020,06,09,13,41,285.10
2020,06,09,13,42,265.70
2020,06,09,13,43,255.80
2020,06,09,13,44,251.70
2020,06,09,13,45,246.60
2020,06,09,13,46,250.70
2020,06,09,13,47,282.60
2020,06,09,13,48,327.20
2020,06,09,13,49,355.60
2020,06,09,13,50,398.70
2020,06,09,13,51,485.70
2020,06,09,13,52,527.00
2020,06,09,13,53,527.00
2020,06,09,13,54,527.00
2020,06,09,13,55,527.00
2020,06,09,13,56,527.00
2020,06,09,13,57,527.00
2020,06,09,13,58,527.00
2020,06,09,13,59,559.90
2020,06,09,14,00,568.00
2020,06,09,14,01,587.00
2020,06,09,14,02,587.00
2020,06,09,14,03,587.00
2020,06,09,14,04,782.70
2020,06,09,14,05,814.10
2020,06,09,14,06,812.00
2020,06,09,14,07,708.70
2020,06,09,14,08,538.00
2020,06,09,14,09,570.50
2020,06,09,14,10,559.80
2020,06,09,14,11,488.30
2020,06,09,14,12,416.50
2020,06,09,14,13,405.00
2020,06,09,14,14,441.70
2020,06,09,14,15,467.40
2020,06,09,14,16,449.80
2020,06,09,14,17,417.40
2020,06,09,14,18,403.70
2020,06,09,14,19,415.90
2020,06,09,14,20,430.00
2020,06,09,14,21,417.30
2020,06,09,14,22,393.80
2020,06,09,14,23,352.60
2020,06,09,14,24,314.80
2020,06,09,14,25,281.50
2020,06,09,14,26,246.00
2020,06,09,14,27,219.20
2020,06,09,14,28,207.00
2020,06,09,14,29,203.70
2020,06,09,14,30,201.10
2020,06,09,14,31,198.10
2020,06,09,14,32,200.10
2020,06,09,14,33,209.00
2020,06,09,14,34,219.20
2020,06,09,14,35,228.60
2020,06,09,14,36,241.00
2020,06,09,14,37,257.40
2020,06,09,14,38,272.00
2020,06,09,14,39,282.80
2020,06,09,14,40,289.90
2020,06,09,14,41,292.00
2020,06,09,14,42,291.30
2020,06,09,14,43,284.50
2020,06,09,14,44,264.70
2020,06,09,14,45,241.60
2020,06,09,14,46,222.20
2020,06,09,14,47,221.50
2020,06,09,14,48,230.50
2020,06,09,14,49,239.70
2020,06,09,14,50,244.90
2020,06,09,14,51,243.60
2020,06,09,14,52,236.20
2020,06,09,14,53,221.50
2020,06,09,14,54,203.60
2020,06,09,14,55,185.40
2020,06,09,14,56,174.10
2020,06,09,14,57,173.70
2020,06,09,14,58,186.00
2020,06,09,14,59,197.80
2020,06,09,15,00,200.00
2020,06,09,15,01,199.40
2020,06,09,15,02,199.00
2020,06,09,15,03,201.50
2020,06,09,15,04,209.50
2020,06,09,15,05,213.00
2020,06,09,15,06,210.00
2020,06,09,15,07,202.60
2020,06,09,15,08,202.70
2020,06,09,15,09,212.70
2020,06,09,15,10,228.60
2020,06,09,15,11,238.30
2020,06,09,15,12,243.50
2020,06,09,15,13,239.50
2020,06,09,15,14,231.80
2020,06,09,15,15,229.00
2020,06,09,15,16,223.80
2020,06,09,15,17,215.90
2020,06,09,15,18,211.00
2020,06,09,15,19,221.40
2020,06,09,15,20,248.90
2020,06,09,15,21,277.30
2020,06,09,15,22,288.00
2020,06,09,15,23,285.50
2020,06,09,15,24,277.50
2020,06,09,15,25,270.70
2020,06,09,15,26,265.90
2020,06,09,15,27,261.80
2020,06,09,15,28,257.20
2020,06,09,15,29,262.50
2020,06,09,15,30,285.00
2020,06,09,15,31,315.50
2020,06,09,15,32,336.50
2020,06,09,15,33,344.70
2020,06,09,15,34,342.20
2020,06,09,15,35,329.30
2020,06,09,15,36,318.20
2020,06,09,15,37,312.20
2020,06,09,15,38,311.00
2020,06,09,15,39,324.20
2020,06,09,15,40,335.50
2020,06,09,15,41,330.10
2020,06,09,15,42,320.90
2020,06,09,15,43,320.80
2020,06,09,15,44,332.00
2020,06,09,15,45,357.70
2020,06,09,15,46,380.20
2020,06,09,15,47,394.10
2020,06,09,15,48,393.00
2020,06,09,15,49,382.90
2020,06,09,15,50,376.90
2020,06,09,15,51,384.30
2020,06,09,15,52,394.70
2020,06,09,15,53,417.90
2020,06,09,15,54,444.20
2020,06,09,15,55,433.00
2020,06,09,15,56,405.20
2020,06,09,15,57,383.70
2020,06,09,15,58,376.70
2020,06,09,15,59,376.90
2020,06,09,16,00,381.80
2020,06,09,16,01,380.80
2020,06,09,16,02,374.70
2020,06,09,16,03,378.40
2020,06,09,16,04,376.90
2020,06,09,16,05,366.00
2020,06,09,16,06,359.40
2020,06,09,16,07,365.30
2020,06,09,16,08,376.80
2020,06,09,16,09,369.40
2020,06,09,16,10,345.70
2020,06,09,16,11,324.30
2020,06,09,16,12,312.70
2020,06,09,16,13,314.20
2020,06,09,16,14,328.00
2020,06,09,16,15,348.00
2020,06,09,16,16,356.20
2020,06,09,16,17,355.00
2020,06,09,16,18,367.40
2020,06,09,16,19,403.70
2020,06,09,16,20,423.40
2020,06,09,16,21,408.10
2020,06,09,16,22,371.60
2020,06,09,16,23,347.30
2020,06,09,16,24,335.30
2020,06,09,16,25,314.80
2020,06,09,16,26,278.00
2020,06,09,16,27,253.60
2020,06,09,16,28,236.40
2020,06,09,16,29,229.40
2020,06,09,16,30,224.60
2020,06,09,16,31,212.60
2020,06,09,16,32,191.20
2020,06,09,16,33,182.40
2020,06,09,16,34,184.70
2020,06,09,16,35,199.70
2020,06,09,16,36,227.00
2020,06,09,16,37,276.10
2020,06,09,16,38,305.60
2020,06,09,16,39,307.70
2020,06,09,16,40,283.50
2020,06,09,16,41,257.50
2020,06,09,16,42,248.70
2020,06,09,16,43,259.70
2020,06,09,16,44,282.70
2020,06,09,16,45,324.30
2020,06,09,16,46,367.00
2020,06,09,16,47,366.30
2020,06,09,16,48,343.00
2020,06,09,16,49,325.90
2020,06,09,16,50,323.40
2020,06,09,16,51,323.30
2020,06,09,16,52,321.00
2020,06,09,16,53,342.70
2020,06,09,16,54,334.00
2020,06,09,16,55,271.30
2020,06,09,16,56,236.00
2020,06,09,16,57,244.60
2020,06,09,16,58,278.30
2020,06,09,16,59,312.00
2020,06,09,17,00,320.00
2020,06,09,17,01,309.50
2020,06,09,17,02,308.80
2020,06,09,17,03,302.90
2020,06,09,17,04,283.50
2020,06,09,17,05,257.30
2020,06,09,17,06,230.80
2020,06,09,17,07,212.20
2020,06,09,17,08,205.20
2020,06,09,17,09,195.80
2020,06,09,17,10,184.80
2020,06,09,17,11,179.50
2020,06,09,17,12,174.70
2020,06,09,17,13,163.30
2020,06,09,17,14,151.00
2020,06,09,17,15,138.20
2020,06,09,17,16,131.60